User: anonymous   Login
Location: Unspecified
(0.0000°N, 0.0000°E)
Time: 11:39:43
(UTC+02:00)
Language:

ARIANE 5 R/B - Orbit

View from above orbital plane
View from above orbital plane
View from above satellite
View from above satellite

Ground track
Ground track

The orbit data is extracted from the following two-line orbital elements,

1 27510U 02040C   16207.60896433 -.00000146  00000-0 -76522-3 0  9994
2 27510   5.4734 337.8321 7158389  83.5030 285.3366  2.27199347115483
Epoch (UTC): 25 July 2016 14:36:54
Eccentricity: 0.7158389
inclination: 5.4734°
perigee height: 567 km
apogee height: 35559 km
right ascension of ascending node: 337.8321°
argument of perigee: 83.5030°
revolutions per day: 2.27199347
mean anomaly at epoch: 285.3366°
orbit number at epoch: 11548

The dashed part of the orbit path shows where the satellite is in the earth's shadow,  

DLR